Location: Équennes
(49.7375°N, 1.9622°E)
Time: 02:16:37
(UTC+00:00)

ATLAS 2AS CENTAUR R/B - Pass Details

Date: 28 January 2023
Orbit: 986 x 1226 km, 63.7° (Epoch: 30 March)

Event Time Altitude Azimuth Distance (km) Brightness Sun altitude
Rises 17:17:21 0° 310° (NW) 4,044 6.2 -6.3°
Reaches altitude 10° 17:20:25 10° 319° (NW) 3,045 5.4 -6.8°
Maximum altitude 17:27:01 36° 25° (NNE) 1,662 3.4 -7.8°
Drops below altitude 10° 17:33:16 10° 91° (E) 2,875 4.4 -8.8°
Enters shadow 17:33:42 - 93° (E) 3,016 4.5 -8.8°
